EW1036 Weather Reports


Display with metric or nautical units.
time (UTC)temp
F
wind
direction
speed
MPH
gust
MPH
rain 1hr
in
rain 24hr
in
rain mn
in
humidity
%
barometer
mb
20260508192032 69 0 1.0 3.0 0.00 0.16 0.03 45 1016.1
20260508191539 69 142 1.0 4.0 0.00 0.16 0.03 47 1016.2
20260508191035 69 143 1.0 4.0 0.00 0.16 0.03 50 1016.2
20260508190533 69 0 1.0 5.0 0.00 0.16 0.03 48 1016.3
20260508190045 68 0 1.0 5.0 0.00 0.16 0.03 49 1016.4
20260508185534 68 147 2.0 4.0 0.00 0.17 0.03 48 1016.4
20260508185033 69 156 2.0 4.0 0.00 0.17 0.03 52 1016.4
20260508184541 69 145 1.0 4.0 0.00 0.17 0.03 52 1016.4
20260508184032 70 165 2.0 4.0 0.00 0.17 0.03 50 1016.4
20260508183534 69 143 1.0 4.0 0.00 0.17 0.03 51 1016.4
20260508183048 70 128 0.0 4.0 0.00 0.17 0.03 54 1016.4
20260508182535 69 0 0.0 5.0 0.00 0.17 0.03 54 1016.4
20260508182032 69 75 1.0 5.0 0.00 0.17 0.03 51 1016.4
20260508181604 69 73 1.0 4.0 0.00 0.17 0.03 55 1016.5
20260508181034 69 0 1.0 5.0 0.00 0.17 0.03 54 1016.6
20260508180532 69 0 1.0 5.0 0.00 0.17 0.03 51 1016.6
20260508180045 69 74 0.0 7.0 0.00 0.17 0.03 51 1016.6
20260508175532 69 309 1.0 7.0 0.00 0.37 0.03 51 1016.7
20260508175032 69 0 1.0 4.0 0.00 0.37 0.03 48 1016.7
20260508174545 68 51 0.0 4.0 0.00 0.37 0.03 53 1016.7
20260508174032 68 76 0.0 3.0 0.00 0.37 0.03 53 1016.6
20260508173531 68 0 0.0 2.0 0.00 0.37 0.03 51 1016.7
20260508173048 68 190 0.0 3.0 0.00 0.37 0.03 54 1016.8
20260508172532 68 191 0.0 6.0 0.00 0.37 0.03 52 1016.8
20260508172031 68 0 1.0 6.0 0.00 0.37 0.03 52 1016.8
20260508171550 68 0 1.0 5.0 0.00 0.37 0.03 54 1016.8
20260508171031 68 320 2.0 5.0 0.00 0.37 0.03 55 1016.9
20260508170534 68 63 0.0 8.0 0.00 0.37 0.03 57 1017.0
20260508170050 67 0 2.0 8.0 0.00 0.37 0.03 59 1017.1
20260508165532 67 54 1.0 5.0 0.00 0.40 0.03 57 1017.1
20260508165033 68 0 1.0 6.0 0.00 0.40 0.03 59 1017.1
20260508164542 68 63 1.0 6.0 0.00 0.40 0.03 58 1017.2
20260508164032 68 67 0.0 5.0 0.00 0.40 0.03 61 1017.2
20260508163532 68 0 0.0 9.0 0.00 0.40 0.03 58 1017.2
20260508163044 67 0 0.0 9.0 0.00 0.40 0.03 61 1017.2
20260508162532 67 71 2.0 8.0 0.00 0.40 0.03 59 1017.2
20260508162033 66 0 0.0 9.0 0.00 0.40 0.03 64 1017.2
20260508161542 66 111 2.0 9.0 0.00 0.40 0.03 61 1017.3
20260508161034 66 63 0.0 7.0 0.00 0.40 0.03 65 1017.2
20260508160533 66 0 0.0 5.0 0.00 0.40 0.03 67 1017.3
20260508160042 65 0 0.0 6.0 0.00 0.40 0.03 64 1017.3
20260508155533 65 0 1.0 6.0 0.00 0.40 0.03 66 1017.4
20260508155033 65 0 0.0 6.0 0.00 0.40 0.03 66 1017.4
20260508154544 65 98 1.0 6.0 0.00 0.40 0.03 67 1017.5
20260508154032 64 67 1.0 6.0 0.00 0.40 0.03 70 1017.5
20260508153533 64 332 1.0 6.0 0.00 0.40 0.03 71 1017.5
20260508153046 64 83 1.0 7.0 0.00 0.40 0.03 71 1017.6
20260508152533 63 15 0.0 7.0 0.00 0.40 0.03 72 1017.5
20260508152032 63 44 2.0 7.0 0.00 0.40 0.03 74 1017.5
20260508151543 63 71 1.0 6.0 0.00 0.40 0.03 76 1017.4
20260508151034 62 0 0.0 6.0 0.00 0.40 0.03 80 1017.4
20260508150531 62 0 1.0 6.0 0.00 0.40 0.03 77 1017.3
20260508150042 62 226 1.0 5.0 0.00 0.40 0.03 76 1017.3
20260508145533 62 0 0.0 5.0 0.00 0.40 0.03 78 1017.4
20260508145033 61 0 1.0 5.0 0.00 0.40 0.03 79 1017.4
20260508144547 61 48 2.0 5.0 0.00 0.40 0.03 80 1017.4
20260508144034 61 0 0.0 3.0 0.00 0.40 0.03 81 1017.5
20260508143534 60 81 1.0 5.0 0.00 0.40 0.03 83 1017.4
20260508143047 60 0 1.0 5.0 0.00 0.40 0.03 84 1017.4
20260508142533 59 0 0.0 4.0 0.00 0.40 0.03 86 1017.4
20260508142032 59 145 0.0 4.0 0.00 0.40 0.03 87 1017.4
20260508141546 59 76 1.0 5.0 0.00 0.40 0.03 89 1017.4
20260508141033 58 0 1.0 5.0 0.00 0.40 0.03 88 1017.2
20260508140535 58 63 0.0 7.0 0.00 0.40 0.03 90 1017.2
20260508140043 57 0 1.0 7.0 0.00 0.40 0.03 91 1017.1
20260508135534 57 53 1.0 6.0 0.00 0.40 0.03 93 1017.2
20260508135034 57 0 0.0 3.0 0.00 0.40 0.03 94 1017.1
20260508134542 57 0 0.0 3.0 0.00 0.40 0.03 95 1017.1
20260508134033 56 15 0.0 3.0 0.00 0.40 0.03 95 1017.0
20260508133533 56 0 0.0 1.0 0.00 0.40 0.03 95 1017.1
20260508133102 56 0 0.0 1.0 0.00 0.40 0.03 95 1017.1
20260508132532 56 0 0.0 0.0 0.00 0.40 0.03 95 1017.1
20260508132032 55 0 0.0 4.0 0.00 0.40 0.03 95 1017.0
20260508131544 55 0 0.0 4.0 0.00 0.40 0.03 95 1016.9
20260508131033 55 0 0.0 4.0 0.00 0.40 0.03 95 1017.0
20260508130533 55 0 0.0 3.0 0.00 0.40 0.03 95 1017.1
20260508130047 54 0 0.0 2.0 0.00 0.40 0.03 95 1016.9
20260508125532 54 34 0.0 2.0 0.00 0.42 0.03 95 1016.9
20260508125032 54 0 0.0 2.0 0.00 0.42 0.03 95 1016.7
20260508124542 54 0 0.0 3.0 0.00 0.42 0.03 95 1016.7
20260508124032 54 0 0.0 3.0 0.00 0.42 0.03 95 1016.6
20260508123532 54 0 0.0 3.0 0.00 0.42 0.03 95 1016.6
20260508123053 53 0 0.0 3.0 0.00 0.42 0.03 95 1016.7
20260508122531 53 342 0.0 3.0 0.00 0.42 0.03 95 1016.7
20260508122033 53 0 0.0 3.0 0.00 0.42 0.03 95 1016.6
20260508121551 53 0 0.0 3.0 0.00 0.42 0.03 95 1016.6
20260508121032 53 0 0.0 3.0 0.00 0.42 0.03 95 1016.6
20260508120532 53 0 0.0 3.0 0.00 0.42 0.03 95 1016.6
20260508120043 53 0 0.0 1.0 0.00 0.42 0.03 95 1016.5
20260508115533 53 0 0.0 1.0 0.00 0.63 0.03 95 1016.3
20260508115033 53 0 0.0 1.0 0.00 0.63 0.03 95 1016.1
20260508114543 52 0 0.0 1.0 0.00 0.63 0.03 95 1016.1
20260508114033 52 0 0.0 0.0 0.00 0.63 0.03 95 1016.3
20260508113534 52 0 0.0 0.0 0.00 0.63 0.03 95 1016.1
20260508113047 52 0 0.0 0.0 0.00 0.63 0.03 95 1016.1
20260508112533 52 0 0.0 1.0 0.00 0.63 0.03 95 1015.9
20260508112033 52 0 0.0 1.0 0.00 0.63 0.03 95 1015.9
20260508111554 52 0 0.0 0.0 0.00 0.63 0.03 95 1015.8
20260508111033 52 0 0.0 0.0 0.00 0.63 0.03 95 1015.8
20260508110535 52 0 0.0 0.0 0.00 0.63 0.03 95 1015.7
20260508110050 52 0 0.0 3.0 0.00 0.63 0.03 94 1015.7
20260508105539 52 0 0.0 3.0 0.00 0.72 0.03 95 1015.5
20260508105034 52 91 0.0 3.0 0.00 0.72 0.03 94 1015.5
20260508104544 52 0 0.0 2.0 0.00 0.72 0.03 94 1015.3
20260508104032 52 81 0.0 2.0 0.00 0.72 0.03 95 1015.1
20260508103534 52 0 0.0 2.0 0.00 0.72 0.03 95 1015.0
20260508103042 52 0 0.0 2.0 0.00 0.72 0.03 95 1014.9
20260508102533 52 0 0.0 2.0 0.00 0.72 0.03 95 1015.0
20260508102033 52 0 0.0 2.0 0.00 0.72 0.03 95 1015.0
20260508101547 52 0 0.0 2.0 0.00 0.72 0.03 95 1014.8
20260508101035 52 0 0.0 2.0 0.00 0.72 0.03 95 1014.8
20260508100533 52 0 0.0 1.0 0.00 0.72 0.03 95 1014.8
20260508100046 52 0 0.0 2.0 0.00 0.72 0.03 95 1014.8
20260508095535 52 0 0.0 3.0 0.00 0.72 0.03 95 1014.7
20260508095034 52 0 0.0 3.0 0.00 0.72 0.03 95 1014.6
20260508094547 52 0 0.0 3.0 0.00 0.72 0.03 95 1014.5
20260508094035 52 0 0.0 0.0 0.00 0.72 0.03 95 1014.5
20260508093534 52 0 0.0 1.0 0.00 0.72 0.03 95 1014.4
20260508093044 52 0 0.0 1.0 0.00 0.72 0.03 95 1014.3
20260508092534 52 0 0.0 1.0 0.00 0.72 0.03 94 1014.2
20260508092036 52 0 0.0 1.0 0.00 0.72 0.03 94 1014.2
20260508091543 52 0 0.0 2.0 0.00 0.72 0.03 94 1014.2
20260508091033 52 0 0.0 2.0 0.00 0.72 0.03 94 1014.2
20260508090533 52 0 0.0 3.0 0.00 0.72 0.03 94 1014.0
20260508090037 52 0 0.0 4.0 0.00 0.72 0.03 94 1013.9
20260508085533 52 5 0.0 4.0 0.00 0.72 0.03 94 1013.8
20260508085033 52 0 0.0 2.0 0.00 0.72 0.03 94 1013.5
20260508084543 52 0 0.0 1.0 0.00 0.72 0.03 94 1013.5
20260508084034 52 0 0.0 2.0 0.00 0.72 0.03 94 1013.4
20260508083533 52 0 0.0 2.0 0.00 0.72 0.03 94 1013.6
20260508083044 52 0 0.0 3.0 0.01 0.72 0.03 94 1013.3
20260508082536 52 0 0.0 3.0 0.01 0.72 0.03 94 1013.3
20260508082031 52 0 0.0 1.0 0.01 0.72 0.03 94 1013.2
20260508081548 52 0 0.0 2.0 0.01 0.72 0.03 94 1013.1
20260508081034 52 0 0.0 2.0 0.01 0.72 0.03 94 1013.3
20260508080533 52 54 0.0 2.0 0.01 0.72 0.03 94 1013.2
20260508080055 52 0 0.0 1.0 0.01 0.72 0.03 94 1013.2
20260508075532 52 0 0.0 0.0 0.01 0.80 0.03 94 1013.1
20260508075033 52 0 0.0 0.0 0.01 0.80 0.03 94 1013.0
20260508074541 52 0 0.0 0.0 0.01 0.80 0.03 94 1013.2
20260508074032 52 0 0.0 0.0 0.01 0.80 0.03 94 1013.3
20260508073532 52 0 0.0 0.0 0.01 0.80 0.03 94 1013.3
20260508073044 52 0 0.0 0.0 0.00 0.79 0.02 94 1013.3
20260508072532 52 0 0.0 0.0 0.00 0.79 0.02 94 1013.5
20260508072032 52 0 0.0 0.0 0.00 0.79 0.02 94 1013.4
20260508071544 52 0 0.0 0.0 0.00 0.79 0.02 94 1013.5
20260508071108 52 0 0.0 0.0 0.00 0.79 0.02 94 1013.3
20260508070534 52 0 0.0 0.0 0.00 0.79 0.02 94 1013.4
20260508070042 52 0 0.0 0.0 0.00 0.79 0.02 94 1013.3
20260508065533 52 0 0.0 0.0 0.00 0.89 0.02 94 1013.2
20260508065032 52 0 0.0 0.0 0.00 0.89 0.02 94 1013.1
20260508064543 53 0 0.0 0.0 0.00 0.89 0.02 94 1013.1
20260508064034 53 0 0.0 0.0 0.00 0.89 0.02 94 1012.9
20260508063533 53 0 0.0 0.0 0.00 0.89 0.02 93 1012.8
20260508063042 53 0 0.0 0.0 0.00 0.89 0.02 93 1013.0
20260508062533 53 0 0.0 0.0 0.00 0.89 0.02 93 1012.9
20260508062033 53 0 0.0 0.0 0.00 0.89 0.02 93 1012.9
20260508061541 53 0 0.0 0.0 0.00 0.89 0.02 93 1012.9
20260508061033 53 0 0.0 0.0 0.00 0.89 0.02 93 1012.7
20260508060533 53 0 0.0 0.0 0.00 0.89 0.02 93 1012.7
20260508060039 53 0 0.0 0.0 0.00 0.89 0.02 93 1012.7
20260508055533 53 0 0.0 0.0 0.00 0.89 0.02 93 1012.9
20260508055033 53 0 0.0 0.0 0.00 0.89 0.02 93 1012.9
20260508054546 53 0 0.0 0.0 0.00 0.89 0.02 93 1012.8
20260508054032 54 0 0.0 0.0 0.01 0.89 0.02 93 1012.8
20260508053533 54 0 0.0 1.0 0.01 0.89 0.02 93 1012.9
20260508053049 54 0 0.0 1.0 0.01 0.89 0.02 94 1012.9
20260508052532 54 0 0.0 2.0 0.01 0.89 0.02 94 1013.0
20260508052036 54 0 0.0 2.0 0.01 0.89 0.02 94 1012.8
20260508051542 54 0 0.0 3.0 0.02 0.89 0.02 94 1012.9
20260508051034 54 0 0.0 3.0 0.02 0.89 0.02 94 1012.8
20260508050533 54 61 0.0 0.0 0.02 0.89 0.02 93 1013.0
20260508050043 54 0 0.0 1.0 0.02 0.89 0.02 93 1013.5
20260508045533 54 0 0.0 1.0 0.02 0.89 0.02 93 1012.5
20260508045033 54 0 0.0 1.0 0.02 0.89 0.02 93 1012.5
20260508044601 54 0 0.0 0.0 0.01 0.88 0.01 93 1012.7
20260508044033 54 0 0.0 0.0 0.01 0.88 0.01 93 1012.6
20260508043533 54 0 0.0 0.0 0.01 0.88 0.01 93 1012.4
20260508043046 54 0 0.0 0.0 0.01 0.88 0.01 93 1012.5
20260508042533 54 0 0.0 2.0 0.01 0.88 0.01 93 1012.2
20260508042032 54 0 0.0 4.0 0.01 0.88 0.01 93 1011.8
20260508041542 54 0 1.0 4.0 0.02 0.87 0.00 93 1011.9
20260508041032 54 50 0.0 2.0 0.11 0.87 0.00 93 1012.1
20260508040533 54 0 0.0 0.0 0.13 0.87 0.00 92 1012.5
20260508040045 54 0 0.0 0.0 0.13 0.87 0.00 92 1012.3
20260508035532 55 0 0.0 0.0 0.13 0.87 0.87 92 1012.2
20260508035034 55 0 0.0 0.0 0.13 0.87 0.87 92 1012.2
20260508034552 55 0 0.0 0.0 0.13 0.87 0.87 92 1012.2
20260508034033 55 0 0.0 0.0 0.13 0.87 0.87 92 1012.2
20260508033536 55 0 0.0 0.0 0.13 0.87 0.87 92 1012.4
20260508033044 55 0 0.0 3.0 0.13 0.87 0.87 92 1012.4
20260508032535 55 0 0.0 3.0 0.13 0.87 0.87 92 1012.2
20260508032033 55 0 0.0 3.0 0.12 0.86 0.86 92 1011.4
20260508031542 55 0 1.0 3.0 0.11 0.85 0.85 92 1011.1
20260508031033 55 0 0.0 3.0 0.01 0.75 0.75 91 1012.9
20260508030532 55 59 0.0 3.0 0.00 0.74 0.74 91 1012.3
20260508030045 55 0 0.0 3.0 0.00 0.74 0.74 90 1011.0
20260508025532 55 0 0.0 2.0 0.00 0.74 0.74 91 1010.9
20260508025032 55 0 0.0 0.0 0.00 0.74 0.74 91 1011.0
20260508024546 55 0 0.0 4.0 0.00 0.74 0.74 91 1011.1
20260508024035 55 0 0.0 4.0 0.00 0.74 0.74 91 1011.3
20260508023532 55 97 0.0 4.0 0.00 0.74 0.74 91 1011.5
20260508023044 55 36 0.0 4.0 0.00 0.74 0.74 91 1011.5
20260508022533 55 0 0.0 5.0 0.00 0.74 0.74 91 1011.4
20260508022034 55 0 1.0 5.0 0.00 0.74 0.74 91 1011.3
20260508021542 55 0 0.0 4.0 0.00 0.74 0.74 91 1011.3
20260508021032 55 55 0.0 5.0 0.00 0.74 0.74 91 1011.4
20260508020532 55 19 0.0 5.0 0.00 0.74 0.74 91 1011.2
20260508020046 55 53 2.0 6.0 0.00 0.74 0.74 91 1011.1
20260508015533 55 49 1.0 6.0 0.00 0.74 0.74 91 1011.0
20260508015032 56 63 1.0 7.0 0.00 0.74 0.74 91 1011.0
20260508014542 56 258 0.0 7.0 0.00 0.74 0.74 91 1010.8
20260508014032 56 0 1.0 8.0 0.00 0.74 0.74 91 1010.8
20260508013532 56 78 1.0 8.0 0.00 0.74 0.74 91 1010.8
20260508013042 56 209 1.0 5.0 0.00 0.74 0.74 91 1010.5
20260508012532 56 0 1.0 7.0 0.00 0.74 0.74 91 1010.4
20260508012034 56 0 0.0 7.0 0.00 0.74 0.74 91 1010.2
20260508011545 56 72 1.0 4.0 0.00 0.74 0.74 91 1010.1
20260508011032 56 0 0.0 4.0 0.00 0.74 0.74 90 1010.2
20260508010534 56 0 0.0 3.0 0.00 0.74 0.74 90 1010.1
20260508010049 56 0 0.0 5.0 0.00 0.74 0.74 90 1009.8
20260508005536 56 0 0.0 7.0 0.00 0.74 0.74 90 1009.8
20260508005034 56 66 0.0 7.0 0.00 0.74 0.74 90 1009.7
20260508004548 57 64 1.0 6.0 0.00 0.74 0.74 90 1009.5
20260508004033 57 65 0.0 8.0 0.00 0.74 0.74 90 1009.5
20260508003532 57 78 2.0 8.0 0.00 0.74 0.74 90 1009.4
20260508003041 57 0 2.0 8.0 0.00 0.74 0.74 90 1009.5
20260508002533 57 213 2.0 10.0 0.00 0.74 0.74 89 1009.4
20260508002033 57 66 1.0 10.0 0.00 0.74 0.74 89 1009.4
20260508001543 57 128 3.0 8.0 0.00 0.74 0.74 89 1009.3
20260508001032 58 70 2.0 7.0 0.00 0.74 0.74 89 1009.0
20260508000535 58 54 2.0 7.0 0.00 0.74 0.74 89 1009.0
20260508000047 58 121 1.0 10.0 0.00 0.74 0.74 89 1009.1
20260507235532 59 0 2.0 10.0 0.00 0.74 0.74 89 1009.2
20260507235033 59 172 2.0 10.0 0.00 0.74 0.74 89 1009.1
20260507234549 59 0 1.0 9.0 0.00 0.74 0.74 89 1009.0
20260507234032 60 58 1.0 10.0 0.00 0.74 0.74 88 1008.8
20260507233533 60 38 2.0 10.0 0.00 0.74 0.74 88 1008.9
20260507233046 61 74 1.0 8.0 0.00 0.74 0.74 88 1008.6
20260507232533 62 78 2.0 8.0 0.00 0.74 0.74 88 1008.8
20260507232034 62 0 2.0 7.0 0.00 0.74 0.74 88 1008.7
20260507231548 63 65 2.0 7.0 0.00 0.74 0.74 87 1008.3
20260507231035 64 32 2.0 6.0 0.00 0.74 0.74 86 1008.2
20260507230532 65 0 1.0 6.0 0.00 0.74 0.74 87 1008.0
20260507230050 66 38 1.0 6.0 0.00 0.74 0.74 88 1007.8
20260507225534 67 77 2.0 8.0 0.00 0.74 0.74 89 1007.6
20260507225032 68 110 2.0 8.0 0.00 0.74 0.74 90 1007.5
20260507224549 70 0 1.0 4.0 0.00 0.74 0.74 93 1007.5
20260507224034 70 0 0.0 4.0 0.00 0.74 0.74 94 1007.3
20260507223532 70 0 0.0 4.0 0.00 0.74 0.74 94 1007.4
20260507223045 70 0 0.0 1.0 0.00 0.74 0.74 94 1007.4
20260507222534 70 0 0.0 0.0 0.00 0.74 0.74 94 1007.3
20260507222032 70 0 0.0 0.0 0.00 0.74 0.74 94 1007.3
20260507221545 70 0 0.0 0.0 0.00 0.74 0.74 94 1007.2
20260507221035 70 0 0.0 0.0 0.00 0.74 0.74 94 1007.2
20260507220532 70 0 0.0 0.0 0.00 0.74 0.74 94 1007.3
20260507220041 70 0 0.0 0.0 0.00 0.74 0.74 94 1007.2
20260507215534 70 0 0.0 0.0 0.00 0.74 0.74 94 1007.4
20260507215033 70 0 0.0 0.0 0.00 0.74 0.74 94 1007.3
20260507214541 70 0 0.0 0.0 0.00 0.74 0.74 94 1007.2
20260507214032 70 0 0.0 1.0 0.00 0.74 0.74 94 1007.0
20260507213532 69 0 0.0 1.0 0.00 0.74 0.74 94 1007.0
20260507213043 69 0 0.0 0.0 0.00 0.74 0.74 93 1006.9
20260507212533 69 0 0.0 0.0 0.00 0.74 0.74 93 1006.9
20260507212036 69 0 0.0 0.0 0.00 0.74 0.74 93 1006.8
20260507211542 69 0 0.0 0.0 0.00 0.74 0.74 93 1006.7
20260507211031 69 0 0.0 0.0 0.00 0.74 0.74 93 1006.8
20260507210533 69 0 0.0 0.0 0.00 0.74 0.74 93 1006.6
20260507210043 69 0 0.0 0.0 0.00 0.74 0.74 93 1006.6
20260507205533 69 0 0.0 0.0 0.00 0.74 0.74 93 1006.6
20260507205032 69 0 0.0 0.0 0.00 0.74 0.74 93 1006.6
20260507204540 69 0 0.0 0.0 0.00 0.74 0.74 93 1006.6
20260507204032 69 0 0.0 0.0 0.00 0.74 0.74 93 1006.8
20260507203532 69 0 0.0 0.0 0.00 0.74 0.74 93 1006.7
20260507203047 70 0 0.0 1.0 0.00 0.74 0.74 93 1006.9
20260507202535 70 0 0.0 3.0 0.00 0.74 0.74 93 1007.0
20260507202032 70 0 0.0 3.0 0.00 0.74 0.74 93 1007.0
20260507201541 70 0 0.0 3.0 0.00 0.74 0.74 93 1007.0
20260507201032 70 0 0.0 0.0 0.00 0.74 0.74 93 1007.1
20260507200532 70 0 0.0 0.0 0.00 0.74 0.74 93 1007.1
20260507200049 70 0 0.0 1.0 0.00 0.74 0.74 93 1007.2
20260507195532 70 0 0.0 1.0 0.00 0.74 0.74 93 1007.2
20260507195032 70 0 0.0 1.0 0.00 0.74 0.74 93 1007.1
20260507194542 70 0 0.0 1.0 0.00 0.74 0.74 93 1007.2
20260507194031 70 0 0.0 0.0 0.00 0.74 0.74 94 1007.4
20260507193531 70 0 0.0 0.0 0.00 0.74 0.74 94 1007.3
20260507193041 70 0 0.0 0.0 0.00 0.74 0.74 94 1007.3
20260507192531 70 0 0.0 0.0 0.00 0.74 0.74 94 1007.4